Regional Weather Roundup
Issued by NWS

Home | Current Version | Previous Version | Graphics & Text | Print | Product List | Glossary On
Versions: 1 2 3 4 5 6 7 8 9 10 11 12 13 14 15 16 17 18 19 20 21 22 23 24 25 26 27 28 29 30 31 32 33 34 35 36 37 38 39 40 41 42 43 44
000
ASUS45 KCYS 020410
RWRWY

WYOMING REGIONAL WEATHER ROUNDUP
NATIONAL WEATHER SERVICE CHEYENNE WY
1000 PM MDT WED OCT 01 2014

NOTE:  "FAIR" INDICATES FEW OR NO CLOUDS BELOW 12,000 FEET
WITH NO SIGNIFICANT WEATHER AND/OR OBSTRUCTIONS TO VISIBILITY.

WYZ001-020500-
YELLOWSTONE NATIONAL PARK

CITY           SKY/WX    TMP DP  RH WIND       PRES   REMARKS
LK YELLOWSTONE   N/A     28  26  92 CALM      30.18R
W YELLOWSTONE  NOT AVBL

$$
WYZ002>013-054>058-071-098>099-020500-
NORTHERN WYOMING

CITY           SKY/WX    TMP DP  RH WIND       PRES   REMARKS
JACKSON        CLOUDY    41  32  70 SW6       30.16R
CODY           CLEAR     43  36  75 S9        30.04S
GREYBULL       PTCLDY    47  39  74 CALM      30.03R
WORLAND        PTCLDY    42  37  82 S8        30.04S
SHERIDAN       CLEAR     36  31  82 S6        30.01S WCI  31
BUFFALO        PTCLDY    39  32  76 S3        30.04S
GILLETTE       CLEAR     42  37  82 W9        30.01S
HULETT         FAIR      41  36  81 S8        30.01
NEWCASTLE      FAIR      41  39  93 N5        30.02

$$
WYZ014>020-022>026-101>103-020500-
CENTRAL WYOMING

CITY           SKY/WX    TMP DP  RH WIND       PRES   REMARKS
BIG PINEY      CLEAR     32  26  78 N10       30.18R WCI  24
PINEDALE       CLEAR     32  28  86 W13       30.17R WCI  22
DUBOIS         FAIR      36  25  64 W18G25    30.12R WCI  25
LANDER         CLEAR     37  32  82 SW7       30.10R WCI  32
RIVERTON       CLEAR     38  34  85 W10       30.11R WCI  31
CASPER         PTCLDY    36  34  92 W7        30.09R WCI  30
DOUGLAS        CLEAR     40  37  89 N3        30.07R

$$
WYZ021-027>030-104>119-020500-
SOUTHERN WYOMING

CITY           SKY/WX    TMP DP  RH WIND       PRES   REMARKS
EVANSTON       CLOUDY    36  30  79 SW8       30.23R WCI  30
KEMMERER       CLEAR     32  30  93 N5        30.21R WCI  27
FORT BRIDGER     N/A     36  32  86 W8        30.25R WCI  29
ROCK SPRINGS   PTCLDY    37  30  75 W10       30.17R WCI  30
DIXON          LGT RAIN  39  36  88 N5        30.18R
RAWLINS        MOCLDY    37  33  85 W6        30.12R WCI  32
SARATOGA       CLOUDY    36  34  93 W9        30.13R WCI  29
LARAMIE        MOCLDY    35  29  78 N6        30.08R WCI  30
CHEYENNE       CLOUDY    40  36  86 N12       30.07R WCI  33
TORRINGTON     PTCLDY    42  40  92 W7        30.02R
PINE BLUFFS    FAIR      37  37 100 NW6       30.05R WCI  33

$$



USA.gov is the U.S. government's official web portal to all federal, state and local government web resources and services.